Вернуться в каталог

COSMOS 1275 DEB

АктивенPO
NORAD 18902·DEBRIS·🇷🇺 Russia

Запущен Jun 4, 1981 с Plesetsk Cosmodrome

Loading…

Ближайшие Пролёты (ближайшие 24 часа)

TLE

СвежийSource: Space-Track

Эпоха: Sep 13, 2026, 08:40 UTC

1 18902U 81053MB  26256.36147040  .00005728  00000-0  12444-2 0  9992
2 18902  82.9405 225.8794 0010205 309.8890  50.1414 14.57915876678146

Отслеживайте COSMOS 1275 DEB в реальном времени с AllMySat

Download on the App Store